Погода в Алтынкане

Узбекистан     40°59′50″N   70°44′22″E
темп.,
°C
ветер,
м/с
пор.,
м/с
влажн.,
%
обл.,
%
осадки,
мм/ч
давл.,
гПа
погр.,
м
31 июля, сб
сб3123:00+21ссз34282 0.0 100847
02:00+19ссз11370 0.0 100815
05:00+18ссв22430 0.0 100916
08:00+22в443529 0.0 1010768
11:00+26юв332670 0.0 10081371
14:00+29ююв442231 0.0 10051871
17:00+29ю332195 0.0 10041456
20:00+24з22293 0.0 100512
1 августа, вс
вс123:00+24ссз5522100 0.0 100561
02:00+23с2227100 0.0 100417
05:00+21с1133100 0.0 100411
08:00+25ююв1126100 0.0 1005480
11:00+27ююв3225100 0.0 10041012
14:00+29юз332157 0.0 10022033
17:00+29ююз5519100 0.0 10012556
20:00+24ссз6732100 0.1 1004183
2 августа, пн
пн223:00+24ссз343197 0.1 100494
02:00+22ссв1135100 0.0 100413
05:00+19ссв11417 0.1 100611
08:00+24юв22334 0.0 1006900
11:00+27ююв44287 0.0 10051980
14:00+29ю56254 0.0 10032362
17:00+30юз561912 0.0 10022936
20:00+23в1235100 0.2 1006100
3 августа, вт
вт323:00+23ссв2232100 0.3 100627
02:00+20сз113453 0.0 100611
05:00+19с22312 0.0 100711
08:00+24ю102670 0.1 1008316
11:00+27ююв43240 0.4 10071622
14:00+30ююз56192 0.0 10052663
17:00+30зюз86135 0.0 10053106
20:00+25сз331618 0.0 100719
4 августа, ср
ср423:00+23ссз332123 0.0 100818
02:00+20с112635 0.0 100811
05:00+19ссз11254 0.0 100912
08:00+25юв11193 0.0 1009405
11:00+28ююв43192 0.0 10081674
14:00+31ю55152 0.0 10062842
17:00+31ююз341532 0.0 10052947
20:00+25зсз22211 0.0 100611